Le nostre stazioni meteo in Italia

Pubblicità
Il mio iltempo24.it
Foggia Amendola, Italia (16261): Temperatura & dewpoint: 09.11.2018 08:00:00 - 15.11.2018 08:00:00 (CET)Foggia Amendola, Italia (16261): velocità del vento: 09.11.2018 08:00:00 - 15.11.2018 08:00:00 (CET)Foggia Amendola, Italia (16261): direzione del vento: 09.11.2018 08:00:00 - 15.11.2018 08:00:00 (CET)Foggia Amendola, Italia (16261): reduced air pressure: 09.11.2018 08:00:00 - 15.11.2018 08:00:00 (CET)Foggia Amendola, Italia (16261): visibility: 09.11.2018 08:00:00 - 15.11.2018 08:00:00 (CET)Foggia Amendola, Italia (16261): ore di luce: 09.11.2018 08:00:00 - 15.11.2018 08:00:00 (CET)
Data & Tempo tt [°C] td [°C] ff [km/h] ff [kn] dd ppp [hPa] vv [km] sd [min]
15.11.2018 08:00:00 13,0 11,0 - - - - 6 -
15.11.2018 07:00:00 12,4 10,5 13 7 ONO 1023,2 3,0 0
15.11.2018 06:00:00 13,0 11,0 - - - - 3,5 -
15.11.2018 05:00:00 12,0 10,0 - - - - 3,5 -
15.11.2018 04:00:00 12,6 10,7 21 11 O 1023,0 3,5 0
15.11.2018 03:00:00 - - - - - - - -
15.11.2018 02:00:00 - - - - - - - -
15.11.2018 01:00:00 - - - - - - - -
15.11.2018 00:00:00 - - - - - - - -
14.11.2018 23:00:00 - - - - - - - -
14.11.2018 22:00:00 - - - - - - - -
14.11.2018 21:00:00 - - - - - - - -
14.11.2018 20:00:00 - - - - - - - -
14.11.2018 19:00:00 14,0 13,2 0 0 N 1023,7 8 0
14.11.2018 18:00:00 14,0 14,0 - - - - 8 -
14.11.2018 17:00:00 15,0 14,0 - - - - 8 -
14.11.2018 16:00:00 17,0 13,5 0 0 N 1023,4 15 60
14.11.2018 15:00:00 18,0 13,0 - - - - 10 -
14.11.2018 14:00:00 19,0 13,0 - - - - 10 -
14.11.2018 13:00:00 19,0 13,0 0 0 N 1024,6 20 60
14.11.2018 12:00:00 18,0 13,0 - - - - 10 -
14.11.2018 11:00:00 17,0 14,0 - - - - 7 -
14.11.2018 10:00:00 15,2 12,7 0 0 N 1025,8 5 60
14.11.2018 09:00:00 14,0 12,0 - - - - 3,5 -
14.11.2018 08:00:00 12,0 10,0 - - - - 3,0 -
14.11.2018 07:00:00 11,0 10,4 18 10 O 1025,9 3,0 0
14.11.2018 06:00:00 11,0 10,0 - - - - 5 -
14.11.2018 05:00:00 11,0 9,0 - - - - 7 -
14.11.2018 04:00:00 - - - - - - - -
14.11.2018 03:00:00 - - - - - - - -
14.11.2018 02:00:00 - - - - - - - -
14.11.2018 01:00:00 - - - - - - - -
14.11.2018 00:00:00 - - - - - - - -
13.11.2018 23:00:00 - - - - - - - -
13.11.2018 22:00:00 - - - - - - - -
13.11.2018 21:00:00 - - - - - - - -
13.11.2018 20:00:00 - - - - - - - -
13.11.2018 19:00:00 12,6 12,3 4 2 OSO 1027,1 7 -
13.11.2018 18:00:00 14,0 14,0 - - - - 10 -
13.11.2018 17:00:00 15,0 15,0 - - - - 10 -
13.11.2018 16:00:00 17,0 14,1 0 0 N 1026,0 12 60
13.11.2018 15:00:00 19,0 11,0 - - - - 10 -
13.11.2018 14:00:00 20,0 8,0 - - - - 10 -
13.11.2018 13:00:00 19,4 10,1 4 2 SSO 1026,1 15 60
13.11.2018 12:00:00 18,0 11,0 - - - - 10 -
13.11.2018 11:00:00 16,0 13,0 - - - - 10 -
13.11.2018 10:00:00 12,2 10,3 5 3 ONO 1028,2 5 30
13.11.2018 09:00:00 10,0 8,0 - - - - 3,5 -
13.11.2018 08:00:00 9,0 7,0 - - - - 0,8 -
13.11.2018 07:00:00 6,6 4,8 0 0 N 1027,0 0,6 0
13.11.2018 06:00:00 8,0 7,0 - - - - 0,1 -
13.11.2018 05:00:00 9,0 7,0 - - - - 0,1 -
13.11.2018 04:00:00 8,8 7,3 0 0 N 1026,8 - -
13.11.2018 03:00:00 9,0 8,0 - - - - - -
13.11.2018 02:00:00 11,0 10,0 - - - - 0,2 -
13.11.2018 01:00:00 11,2 9,6 0 0 N 1026,4 0,4 -
13.11.2018 00:00:00 9,0 7,0 - - - - 0,8 -
12.11.2018 23:00:00 13,0 11,0 - - - - 2,5 -
12.11.2018 22:00:00 13,2 11,6 0 0 N 1026,3 2,5 -
12.11.2018 21:00:00 13,0 12,0 - - - - 2,5 -
12.11.2018 20:00:00 13,0 11,0 - - - - 3,0 -
12.11.2018 19:00:00 13,2 12,4 9 5 ESE 1026,2 7 0
12.11.2018 18:00:00 13,0 13,0 - - - - 8 -
12.11.2018 17:00:00 15,0 15,0 - - - - 8 -
12.11.2018 16:00:00 19,0 13,4 9 5 E 1025,3 10 60
12.11.2018 15:00:00 20,0 12,0 - - - - 10 -
12.11.2018 14:00:00 20,0 14,0 - - - - 10 -
12.11.2018 13:00:00 18,0 14,1 4 2 SE 1026,2 10 60
12.11.2018 12:00:00 16,0 14,0 - - - - 7 -
12.11.2018 11:00:00 13,0 12,0 2 1 N - 7 -
12.11.2018 10:00:00 13,0 12,2 4 2 E 1025,5 0,3 -
12.11.2018 09:00:00 12,0 11,0 - - - - 0,1 -
12.11.2018 08:00:00 10,0 8,0 - - - - 0,1 -
12.11.2018 07:00:00 10,2 8,8 5 3 SSO 1025,8 0,1 0
12.11.2018 06:00:00 12,0 11,0 - - - - 0,1 -
12.11.2018 05:00:00 12,0 11,0 - - - - 0,3 -
12.11.2018 04:00:00 12,4 10,8 8 4 OSO 1024,5 0,3 0
12.11.2018 03:00:00 12,0 10,0 - - - - 0,6 -
12.11.2018 02:00:00 12,0 10,0 - - - - 0,4 -
12.11.2018 01:00:00 12,0 10,4 0 0 N 1023,9 0,8 -
12.11.2018 00:00:00 12,0 10,0 - - - - 0,8 -
11.11.2018 23:00:00 12,0 10,0 - - - - 0,5 -
11.11.2018 22:00:00 12,0 10,4 4 2 NNE 1024,0 0,4 -
11.11.2018 21:00:00 13,0 11,0 - - - - 4,0 -
11.11.2018 20:00:00 14,0 12,0 - - - - 4,0 -
11.11.2018 19:00:00 14,0 12,4 8 4 E 1021,7 5 0
11.11.2018 18:00:00 14,0 14,0 - - - - 6 -
11.11.2018 17:00:00 15,0 15,0 - - - - 8 -
11.11.2018 16:00:00 18,0 13,9 11 6 E 1020,0 10 -
11.11.2018 15:00:00 19,0 12,0 - - - - 10 -
11.11.2018 14:00:00 19,0 13,0 - - - - 10 -
11.11.2018 13:00:00 18,0 12,5 9 5 E 1019,8 8 -
11.11.2018 12:00:00 16,0 14,0 - - - - 7 -
11.11.2018 11:00:00 12,0 12,0 - - - - 3,0 -
11.11.2018 10:00:00 12,0 12,0 4 2 SSO 1019,7 0,1 -
11.11.2018 09:00:00 11,0 11,0 - - - - - -
11.11.2018 08:00:00 11,0 11,0 - - - - - -
11.11.2018 07:00:00 11,2 11,2 0 0 N 1018,9 0,1 -
11.11.2018 06:00:00 12,0 12,0 - - - - 0,1 -
11.11.2018 05:00:00 12,0 10,0 - - - - 0,4 -
11.11.2018 04:00:00 12,0 10,1 0 0 N 1017,6 0,8 -
11.11.2018 03:00:00 11,0 10,0 - - - - 1,8 -
11.11.2018 02:00:00 12,0 10,0 - - - - 2,5 -
11.11.2018 01:00:00 12,8 10,9 0 0 N 1017,5 2,5 -
11.11.2018 00:00:00 12,0 10,0 - - - - 1,8 -
10.11.2018 23:00:00 12,0 10,0 - - - - 4,0 -
10.11.2018 22:00:00 13,8 11,7 0 0 N 1017,2 4,5 -
10.11.2018 21:00:00 14,0 11,0 - - - - 4,0 -
10.11.2018 20:00:00 13,0 12,0 - - - - 4,0 -
10.11.2018 19:00:00 14,0 12,4 11 6 E 1016,3 4,0 -
10.11.2018 18:00:00 16,0 14,0 - - - - 5 -
10.11.2018 17:00:00 16,0 16,0 - - - - 4,0 -
10.11.2018 16:00:00 17,8 15,6 15 8 E 1015,4 5 -
10.11.2018 15:00:00 18,0 13,0 - - - - 8 -
10.11.2018 14:00:00 19,0 13,0 - - - - 10 -
10.11.2018 13:00:00 19,0 12,5 9 5 SE 1016,1 12 -
10.11.2018 12:00:00 18,0 12,0 - - - - 10 -
10.11.2018 11:00:00 17,0 14,0 - - - - 8 -
10.11.2018 10:00:00 13,4 11,1 5 3 - 1017,6 7 -
10.11.2018 09:00:00 11,0 9,0 0 0 - - 6 -
10.11.2018 08:00:00 10,0 8,0 5 3 - - 3,0 -
10.11.2018 07:00:00 - - - - - - - -
10.11.2018 06:00:00 - - - - - - - -
10.11.2018 05:00:00 - - - - - - - -
10.11.2018 04:00:00 - - - - - - - -
10.11.2018 03:00:00 - - - - - - - -
10.11.2018 02:00:00 - - - - - - - -
10.11.2018 01:00:00 - - - - - - - -
10.11.2018 00:00:00 - - - - - - - -
09.11.2018 23:00:00 - - - - - - - -
09.11.2018 22:00:00 - - - - - - - -
09.11.2018 21:00:00 - - - - - - - -
09.11.2018 20:00:00 - - - - - - - -
09.11.2018 19:00:00 13,0 11,4 9 5 E 1018,1 10 0
09.11.2018 18:00:00 14,0 13,0 - - - - 10 -
09.11.2018 17:00:00 15,0 14,0 - - - - 10 -
09.11.2018 16:00:00 17,4 13,7 16 9 E 1018,0 10 60
09.11.2018 15:00:00 20,0 12,0 - - - - 10 -
09.11.2018 14:00:00 20,0 11,0 - - - - 10 -
09.11.2018 13:00:00 20,0 9,0 4 2 SSE 1018,9 10 60
09.11.2018 12:00:00 18,0 10,0 - - - - 10 -
09.11.2018 11:00:00 18,0 10,0 - - - - 10 -
09.11.2018 10:00:00 15,0 11,2 5 3 O 1019,6 10 60
09.11.2018 09:00:00 12,0 10,0 - - - - 10 -
09.11.2018 08:00:00 9,0 7,0 - - - - 10 -

tt = Temperatura
td = dewpoint
ff = velocità del vento
dd = direzione del vento
ppp = reduced air pressure
vv = visibility
sd = ore di luce

Stazioni seguenti

WeatherPro
AMSI
MeteoEarth